EW4719 Weather Reports


Display with metric or nautical units.
time (UTC)temp
F
wind
direction
speed
MPH
gust
MPH
rain 1hr
in
rain 24hr
in
rain mn
in
humidity
%
barometer
mb
20260902164539 59 61 1.0 3.0 0.01 0.19 0.05 96 1009.9
20260902163016 58 82 0.0 3.0 0.01 0.19 0.05 96 1010.1
20260902161544 58 64 0.0 5.0 0.01 0.19 0.05 96 1010.2
20260902160105 58 82 0.0 3.0 0.00 0.18 0.04 96 1010.5
20260902154559 58 76 1.0 4.0 0.00 0.18 0.04 96 1010.7
20260902153112 57 64 0.0 2.0 0.00 0.18 0.04 96 1010.9
20260902151507 57 64 1.0 4.0 0.01 0.18 0.04 96 1011.0
20260902150155 57 67 0.0 3.0 0.01 0.18 0.04 96 1011.2
20260902144516 56 78 1.0 3.0 0.01 0.18 0.04 96 1011.3
20260902143118 56 30 0.0 3.0 0.01 0.18 0.04 96 1011.5
20260902141605 56 63 0.0 1.0 0.00 0.17 0.03 96 1011.6
20260902140016 55 67 0.0 4.0 0.00 0.17 0.03 96 1011.8
20260902134534 55 47 0.0 3.0 0.00 0.17 0.03 96 1011.9
20260902133051 55 38 0.0 3.0 0.00 0.17 0.03 96 1011.9
20260902131540 55 71 0.0 3.0 0.00 0.17 0.03 96 1012.1
20260902130015 55 69 2.0 4.0 0.00 0.17 0.03 96 1012.2
20260902124559 55 67 0.0 5.0 0.00 0.17 0.03 96 1012.2
20260902123111 55 66 1.0 6.0 0.00 0.17 0.03 96 1012.4
20260902121544 54 71 2.0 4.0 0.00 0.17 0.03 96 1012.5
20260902120043 54 73 2.0 5.0 0.00 0.17 0.03 96 1012.7
20260902114542 54 355 2.0 4.0 0.00 0.17 0.03 96 1012.9
20260902113039 55 22 1.0 7.0 0.00 0.17 0.03 96 1013.1
20260902111542 54 23 2.0 5.0 0.00 0.17 0.03 96 1013.2
20260902110111 55 13 1.0 5.0 0.01 0.17 0.03 96 1013.2
20260902104551 55 63 0.0 4.0 0.02 0.17 0.03 96 1013.2
20260902103112 55 74 1.0 6.0 0.02 0.17 0.03 96 1013.3
20260902101556 55 145 2.0 5.0 0.02 0.17 0.03 96 1013.2
20260902100115 54 71 4.0 9.0 0.02 0.17 0.02 95 1013.3
20260902094542 55 69 4.0 9.0 0.01 0.16 0.02 96 1013.5
20260902093002 55 130 1.0 4.0 0.00 0.15 0.01 96 1013.6
20260902091649 55 81 2.0 8.0 0.00 0.15 0.01 96 1013.4
20260901231605 55 295 3.0 8.0 0.00 0.14 0.00 93 1013.8
20260901230104 55 258 3.0 8.0 0.00 0.14 0.00 93 1013.9
20260901224546 55 248 3.0 9.0 0.00 0.14 0.14 93 1013.8
20260901223113 55 288 2.0 8.0 0.00 0.14 0.14 93 1013.9
20260901221601 55 219 3.0 11.0 0.00 0.14 0.14 93 1013.6
20260901220120 55 242 3.0 9.0 0.00 0.14 0.14 93 1013.5
20260901214602 55 254 4.0 10.0 0.00 0.14 0.14 93 1013.5
20260901213120 55 246 3.0 8.0 0.00 0.14 0.14 93 1013.6
20260901211604 55 272 2.0 7.0 0.00 0.14 0.14 93 1013.6
20260901210115 55 264 3.0 8.0 0.00 0.14 0.14 93 1013.5
20260901204555 55 279 4.0 10.0 0.00 0.14 0.14 93 1013.5
20260901203116 55 220 4.0 9.0 0.00 0.14 0.14 93 1013.4
20260901201558 55 276 4.0 12.0 0.00 0.14 0.14 93 1013.4
20260901200118 55 236 4.0 11.0 0.00 0.14 0.14 93 1013.2
20260901194615 55 258 5.0 13.0 0.00 0.14 0.14 93 1013.1
20260901193109 55 240 6.0 13.0 0.00 0.14 0.14 94 1013.0
20260901191600 55 224 5.0 12.0 0.00 0.14 0.14 94 1012.8
20260901190118 56 262 3.0 14.0 0.00 0.14 0.14 94 1012.7
20260901184600 56 249 4.0 12.0 0.00 0.14 0.14 94 1012.7
20260901183117 56 333 4.0 14.0 0.00 0.14 0.14 94 1012.7
20260901181603 56 240 6.0 14.0 0.00 0.14 0.14 94 1012.7
20260901180113 56 228 6.0 16.0 0.01 0.14 0.14 94 1012.5
20260901174520 57 244 5.0 15.0 0.03 0.14 0.14 94 1012.5
20260901173009 57 253 5.0 14.0 0.08 0.14 0.14 94 1012.6
20260901171519 57 281 5.0 11.0 0.14 0.14 0.14 93 1012.5
20260901170150 57 307 4.0 11.0 0.13 0.13 0.13 93 1012.4